Stations météo

réclame
Mon MeteoGroup
Dunkeswell Aerodrome, Grande-Bretagne (3840): Température de l'air & dewpoint: 18.01.2018 09:00:00 - 24.01.2018 09:00:00 (GMT)Dunkeswell Aerodrome, Grande-Bretagne (3840): Vitesse du vent & gusts: 18.01.2018 09:00:00 - 24.01.2018 09:00:00 (GMT)Dunkeswell Aerodrome, Grande-Bretagne (3840): Direction du vent: 18.01.2018 09:00:00 - 24.01.2018 09:00:00 (GMT)Dunkeswell Aerodrome, Grande-Bretagne (3840): reduced air pressure: 18.01.2018 09:00:00 - 24.01.2018 09:00:00 (GMT)Dunkeswell Aerodrome, Grande-Bretagne (3840): visibility: 18.01.2018 09:00:00 - 24.01.2018 09:00:00 (GMT)Dunkeswell Aerodrome, Grande-Bretagne (3840): Quantités de précipitations: 18.01.2018 09:00:00 - 24.01.2018 09:00:00 (GMT)
Date & Time tt [°C] td [°C] ff [km/h] ff [knt] fx [km/h] fx [knt] dd ppp [hPa] vv [km] rr [mm]
24.01.2018 09:00:00 11,3 11,3 50 27 76 41 SSW 1003,2 5 0,2
24.01.2018 08:00:00 10,9 10,7 35 19 80 43 SW 1004,2 5 0,0
24.01.2018 07:00:00 11,3 11,3 42 23 72 39 SSW 1004,8 3,1 0,4
24.01.2018 06:00:00 11,2 11,2 41 22 61 33 SSW 1005,9 6 0,0
24.01.2018 05:00:00 11,1 11,1 37 20 72 39 SSW 1007,5 4,4 0,2
24.01.2018 04:00:00 10,7 10,7 37 20 65 35 SSW 1008,5 3,0 0,0
24.01.2018 03:00:00 10,3 10,3 41 22 63 34 SW 1009,4 6 0,2
24.01.2018 02:00:00 9,9 9,9 35 19 59 32 SW 1010,6 8 0,0
24.01.2018 01:00:00 9,7 9,3 41 22 61 33 SW 1011,3 7 0,0
24.01.2018 00:00:00 9,6 9,0 29 16 48 26 SSW 1012,8 9 0,0
23.01.2018 23:00:00 9,3 8,7 22 12 - - SSW 1014,2 8 0,0
23.01.2018 22:00:00 8,8 8,6 18 10 - - SSW 1014,5 7 0,0
23.01.2018 21:00:00 8,4 7,7 21 11 - - SSW 1014,8 8 0,0
23.01.2018 20:00:00 8,5 7,6 15 8 - - SSW 1015,0 13 0,0
23.01.2018 19:00:00 9,3 7,8 18 10 - - WSW 1015,2 14 0,0
23.01.2018 18:00:00 10,3 9,6 18 10 - - WSW 1014,7 28 0,0
23.01.2018 17:00:00 10,6 10,4 18 10 50 27 W 1014,6 29 0,4
23.01.2018 16:00:00 11,3 11,0 21 11 - - SW 1013,6 3,3 0,0
23.01.2018 15:00:00 11,6 10,9 21 11 - - SW 1012,9 50 0,0
23.01.2018 14:00:00 11,6 11,1 22 12 - - SSW 1013,2 50 0,0
23.01.2018 13:00:00 11,6 10,8 22 12 - - SW 1014,0 50 0,0
23.01.2018 12:00:00 11,3 10,9 22 12 - - SW 1014,3 45 0,0
23.01.2018 11:00:00 10,8 10,8 18 10 - - SW 1014,8 19 0,0
23.01.2018 10:00:00 10,5 10,5 22 12 - - SW 1014,9 7 0,0
23.01.2018 09:00:00 10,4 10,3 28 15 - - SW 1014,8 10 0,0
23.01.2018 08:00:00 10,4 10,3 26 14 - - SW 1014,9 6 0,0
23.01.2018 07:00:00 10,1 10,1 24 13 - - SSW 1015,1 8 0,0
23.01.2018 06:00:00 9,8 9,8 24 13 - - SSW 1015,4 0,7 0,6
23.01.2018 05:00:00 8,9 8,9 26 14 - - S 1015,8 0,4 1,0
23.01.2018 04:00:00 8,7 8,7 22 12 - - S 1016,4 0,1 0,4
23.01.2018 03:00:00 8,4 8,3 29 16 - - SSW 1017,2 6 0,0
23.01.2018 02:00:00 - - - - - - - - - 0,0
23.01.2018 01:00:00 7,4 7,1 22 12 - - SSW 1018,8 13 0,0
23.01.2018 00:00:00 7,1 6,1 18 10 - - SSW 1019,3 18 0,0
22.01.2018 23:00:00 6,9 5,9 13 7 - - SW 1019,8 18 0,0
22.01.2018 22:00:00 6,6 5,8 15 8 - - SW 1019,8 18 0,0
22.01.2018 21:00:00 6,3 5,3 13 7 - - SW 1019,7 21 0,0
22.01.2018 20:00:00 6,2 5,1 13 7 - - SW 1019,6 16 0,0
22.01.2018 19:00:00 6,7 5,0 15 8 - - WSW 1019,5 20 0,0
22.01.2018 18:00:00 6,9 4,7 9 5 - - W 1019,0 24 0,0
22.01.2018 17:00:00 7,3 5,1 11 6 - - W 1018,6 18 0,0
22.01.2018 16:00:00 7,6 4,5 15 8 - - W 1018,2 25 0,0
22.01.2018 15:00:00 7,8 4,1 22 12 - - WNW 1017,3 40 0,0
22.01.2018 14:00:00 8,1 4,9 16 9 - - WNW 1016,4 15 0,0
22.01.2018 13:00:00 8,1 4,4 21 11 - - WNW 1016,1 20 0,0
22.01.2018 12:00:00 8,1 5,1 18 10 - - WNW 1015,4 27 0,0
22.01.2018 11:00:00 7,7 5,9 21 11 - - NW 1014,7 14 0,0
22.01.2018 10:00:00 7,2 6,5 13 7 - - WNW 1013,6 8 0,0
22.01.2018 09:00:00 7,1 6,3 15 8 - - WNW 1012,3 11 0,0
22.01.2018 08:00:00 6,7 6,5 13 7 - - NW 1010,4 10 0,2
22.01.2018 07:00:00 6,9 6,8 11 6 - - NNW 1009,5 6 1,8
22.01.2018 06:00:00 7,4 7,3 13 7 - - NW 1008,6 5 0,4
22.01.2018 05:00:00 7,6 7,4 13 7 - - WNW 1007,9 7 0,0
22.01.2018 04:00:00 7,5 7,5 9 5 - - W 1007,9 6 0,0
22.01.2018 03:00:00 7,7 7,4 16 9 - - WSW 1007,6 6 0,0
22.01.2018 02:00:00 7,9 7,2 15 8 - - W 1008,9 8 0,0
22.01.2018 01:00:00 8,1 7,4 16 9 - - W 1009,0 8 0,0
22.01.2018 00:00:00 8,7 8,0 18 10 - - W 1009,4 9 0,0
21.01.2018 23:00:00 9,1 8,3 24 13 48 26 W 1009,3 12 0,0
21.01.2018 22:00:00 9,6 9,5 29 16 55 30 W 1009,4 18 0,2
21.01.2018 21:00:00 10,2 10,2 24 13 48 26 W 1009,0 3,4 0,0
21.01.2018 20:00:00 10,4 10,4 24 13 57 31 W 1008,5 10 0,2
21.01.2018 19:00:00 10,5 10,5 29 16 54 29 W 1008,5 4,9 0,2
21.01.2018 18:00:00 10,6 10,6 22 12 46 25 W 1008,7 4,7 0,8
21.01.2018 17:00:00 10,6 10,6 24 13 46 25 W 1008,6 4,8 0,6
21.01.2018 16:00:00 10,5 10,5 26 14 48 26 W 1008,5 5 0,4
21.01.2018 15:00:00 10,4 10,4 28 15 54 29 W 1008,9 4,1 0,2
21.01.2018 14:00:00 10,3 10,3 26 14 55 30 W 1009,2 3,2 0,2
21.01.2018 13:00:00 10,2 10,2 22 12 - - W 1009,5 3,9 0,2
21.01.2018 12:00:00 9,7 9,7 22 12 - - W 1010,4 6 1,4
21.01.2018 11:00:00 8,3 8,3 11 6 - - SSW 1011,1 2,6 2,2
21.01.2018 10:00:00 7,4 7,4 9 5 - - S 1011,3 2,9 3,2
21.01.2018 09:00:00 6,8 6,8 13 7 - - S 1011,7 3,5 1,8
21.01.2018 08:00:00 5,2 5,2 18 10 - - SSE 1012,0 3,6 1,2
21.01.2018 07:00:00 4,4 4,4 18 10 - - S 1012,7 1,9 0,6
21.01.2018 06:00:00 3,7 3,7 15 8 - - SSE 1013,5 1,7 0,4
21.01.2018 05:00:00 3,5 3,5 11 6 - - SSE 1013,8 1,7 0,0
21.01.2018 04:00:00 3,6 3,4 13 7 - - S 1013,9 8 0,2
21.01.2018 03:00:00 3,0 2,8 5 3 - - SE 1014,3 4,6 0,0
21.01.2018 02:00:00 2,7 2,4 5 3 - - S 1013,8 6 0,0
21.01.2018 01:00:00 2,6 2,2 5 3 - - ESE 1013,9 6 0,0
21.01.2018 00:00:00 2,7 2,1 4 2 - - E 1012,7 9 0,0
20.01.2018 23:00:00 2,7 2,1 11 6 - - ENE 1012,0 10 0,0
20.01.2018 22:00:00 3,8 3,1 13 7 - - ENE 1010,8 8 0,0
20.01.2018 21:00:00 4,9 3,5 9 5 - - NNE 1009,1 11 0,0
20.01.2018 20:00:00 6,2 4,1 16 9 - - NW 1007,2 50 0,0
20.01.2018 19:00:00 7,3 5,1 26 14 54 29 NW 1005,2 45 0,0
20.01.2018 18:00:00 7,7 6,0 21 11 - - NW 1003,6 28 0,4
20.01.2018 17:00:00 8,2 7,3 26 14 52 28 WNW 1001,5 4,7 0,0
20.01.2018 16:00:00 8,8 7,0 28 15 54 29 WNW 1000,0 14 0,0
20.01.2018 15:00:00 9,1 7,7 31 17 55 30 WNW 998,6 24 0,2
20.01.2018 14:00:00 9,4 9,4 22 12 46 25 W 998,2 8 0,4
20.01.2018 13:00:00 8,2 8,2 21 11 - - W 998,2 4,2 0,2
20.01.2018 12:00:00 7,1 7,1 16 9 - - W 999,1 8 0,0
20.01.2018 11:00:00 6,3 6,3 11 6 - - W 999,5 0,2 0,2
20.01.2018 10:00:00 5,9 5,9 11 6 - - WSW 999,1 0,4 0,2
20.01.2018 09:00:00 5,6 5,6 9 5 - - S 998,6 0,8 0,2
20.01.2018 08:00:00 5,1 5,1 11 6 - - SE 998,8 1,2 0,0
20.01.2018 07:00:00 5,0 5,0 13 7 - - SSE 999,0 3,5 0,2
20.01.2018 06:00:00 4,7 4,7 16 9 - - SSE 999,6 1,6 0,6
20.01.2018 05:00:00 4,1 4,1 15 8 - - SSE 1001,2 4,2 1,0
20.01.2018 04:00:00 3,8 3,7 13 7 - - S 1003,2 7 1,0
20.01.2018 03:00:00 3,0 2,6 11 6 - - S 1005,4 7 0,4
20.01.2018 02:00:00 3,0 2,0 11 6 - - SSW 1007,3 15 0,0
20.01.2018 01:00:00 3,0 1,9 11 6 - - SW 1009,1 15 0,0
20.01.2018 00:00:00 2,2 1,4 9 5 - - WSW 1010,0 16 0,0
19.01.2018 23:00:00 2,3 1,5 11 6 - - SW 1010,6 20 0,0
19.01.2018 22:00:00 2,4 1,6 11 6 - - WSW 1011,3 20 0,2
19.01.2018 21:00:00 1,9 1,1 13 7 - - SW 1011,8 23 0,0
19.01.2018 20:00:00 1,9 0,8 11 6 - - WSW 1012,2 15 0,0
19.01.2018 19:00:00 1,9 0,5 13 7 - - SW 1012,0 18 0,0
19.01.2018 18:00:00 2,0 1,0 13 7 - - W 1011,8 18 0,0
19.01.2018 17:00:00 1,8 0,9 13 7 - - W 1011,9 35 0,0
19.01.2018 16:00:00 3,4 0,9 16 9 - - W 1011,9 30 0,0
19.01.2018 15:00:00 3,4 0,7 16 9 - - W 1011,5 40 0,0
19.01.2018 14:00:00 4,1 1,0 16 9 48 26 W 1011,4 26 0,0
19.01.2018 13:00:00 5,3 1,0 22 12 - - W 1011,6 30 0,0
19.01.2018 12:00:00 4,9 2,0 22 12 - - WSW 1011,7 35 0,0
19.01.2018 11:00:00 3,5 1,8 13 7 - - WSW 1012,5 25 0,4
19.01.2018 10:00:00 2,6 0,6 15 8 - - SW 1012,2 30 0,0
19.01.2018 09:00:00 1,9 0,5 13 7 - - WSW 1012,0 29 0,0
19.01.2018 08:00:00 2,0 0,8 16 9 - - W 1011,4 22 0,0
19.01.2018 07:00:00 1,7 1,0 13 7 - - W 1011,0 25 0,0
19.01.2018 06:00:00 1,4 0,9 13 7 - - WSW 1010,9 27 0,0
19.01.2018 05:00:00 1,3 1,0 15 8 - - W 1010,7 29 0,0
19.01.2018 04:00:00 1,2 0,7 13 7 - - W 1010,5 45 0,0
19.01.2018 03:00:00 1,1 0,7 13 7 - - WSW 1010,2 30 0,0
19.01.2018 02:00:00 1,5 0,5 15 8 - - WSW 1009,9 50 0,0
19.01.2018 01:00:00 2,2 1,2 15 8 - - W 1010,0 24 0,2
19.01.2018 00:00:00 2,2 0,7 15 8 - - W 1009,8 18 0,0
18.01.2018 23:00:00 2,0 0,2 11 6 - - W 1009,7 28 0,0
18.01.2018 22:00:00 2,8 0,2 13 7 - - W 1009,3 27 0,0
18.01.2018 21:00:00 2,4 0,6 15 8 - - W 1009,1 22 0,0
18.01.2018 20:00:00 2,8 0,2 16 9 - - W 1008,8 30 0,0
18.01.2018 19:00:00 3,0 1,1 13 7 - - W 1008,4 21 0,2
18.01.2018 18:00:00 3,7 1,2 18 10 - - WNW 1007,8 30 0,0
18.01.2018 17:00:00 4,4 1,4 21 11 - - WNW 1006,7 24 0,0
18.01.2018 16:00:00 5,2 2,1 16 9 - - W 1005,7 45 0,0
18.01.2018 15:00:00 5,8 2,8 18 10 - - W 1005,1 30 0,0
18.01.2018 14:00:00 6,1 3,5 15 8 - - W 1004,9 35 0,0
18.01.2018 13:00:00 5,0 3,3 16 9 50 27 W 1004,8 50 0,8
18.01.2018 12:00:00 6,4 4,7 18 10 - - W 1004,9 30 0,2
18.01.2018 11:00:00 5,9 4,3 16 9 - - W 1005,3 13 0,0
18.01.2018 10:00:00 5,3 3,5 15 8 - - W 1005,1 16 0,0
18.01.2018 09:00:00 5,4 3,9 13 7 - - W 1004,5 18 0,0

tt = Température de l'air
td = dewpoint
ff = Vitesse du vent
fx = gusts
dd = Direction du vent
ppp = reduced air pressure
vv = visibility
rr = Quantités de précipitations

stations d'obs. à proximité